Location: Colonia Mina de C?rbuni
(46.1667°N, 22.7167°E)
Time: 06:22:55
(UTC+00:00)

Tiros 1 - Pass Details

Date: 18 April 2024
Orbit: 620 x 652 km, 48.4° (Epoch: 12 May)

Event Time Altitude Azimuth Distance (km) Brightness Sun altitude
Rises 04:26:11 0° 289° (WNW) 2,897 9.9 7.5°
Reaches altitude 10° 04:28:31 10° 286° (WNW) 1,987 9.1 7.9°
Maximum altitude 04:33:02 66° 205° (SSW) 679 7.3 8.7°
Drops below altitude 10° 04:37:33 10° 124° (ESE) 1,982 10.6 9.5°
Sets 04:39:52 0° 121° (ESE) 2,888 11.4 9.9°
